| time (UTC) | temp F | wind direction | speed MPH | gust MPH | rain 1hr in | rain 24hr in | rain mn in | humidity % | barometer mb |
| 20260904122457 | 53 | 34 | 1.0 | 2.0 | 0.00 | 0.00 | 0.00 | 85 | 1011.7 |
| 20260904122342 | 0 | 0.0 | 0.0 | 0.00 | 0.00 | 0.00 | |||
| 20260904121957 | 53 | 47 | 1.0 | 2.0 | 0.00 | 0.00 | 0.00 | 86 | 1011.6 |
| 20260904121844 | 0 | 0.0 | 0.0 | 0.00 | 0.00 | 0.00 | |||
| 20260904121457 | 53 | 49 | 0.0 | 2.0 | 0.00 | 0.00 | 0.00 | 86 | 1011.5 |
| 20260904121342 | 0 | 0.0 | 0.0 | 0.00 | 0.00 | 0.00 | |||
| 20260904120957 | 53 | 40 | 0.0 | 1.0 | 0.00 | 0.00 | 0.00 | 85 | 1011.5 |
| 20260904120457 | 53 | 154 | 0.0 | 1.0 | 0.00 | 0.00 | 0.00 | 86 | 1011.5 |
| 20260904120342 | 0 | 0.0 | 0.0 | 0.00 | 0.00 | 0.00 | |||
| 20260904115957 | 54 | 61 | 0.0 | 2.0 | 0.00 | 0.00 | 0.00 | 87 | 1011.4 |
| 20260904115843 | 0 | 0.0 | 0.0 | 0.00 | 0.00 | 0.00 | |||
| 20260904115457 | 54 | 159 | 1.0 | 2.0 | 0.00 | 0.00 | 0.00 | 87 | 1011.4 |
| 20260904115343 | 0 | 0.0 | 0.0 | 0.00 | 0.00 | 0.00 | |||
| 20260904114957 | 54 | 205 | 0.0 | 2.0 | 0.00 | 0.00 | 0.00 | 87 | 1011.4 |
| 20260904114843 | 0 | 0.0 | 0.0 | 0.00 | 0.00 | 0.00 | |||
| 20260904114459 | 54 | 320 | 0.0 | 2.0 | 0.00 | 0.00 | 0.00 | 87 | 1011.2 |
| 20260904114343 | 0 | 0.0 | 0.0 | 0.00 | 0.00 | 0.00 | |||
| 20260904113957 | 54 | 338 | 2.0 | 4.0 | 0.00 | 0.00 | 0.00 | 87 | 1011.2 |
| 20260904113841 | 0 | 0.0 | 0.0 | 0.00 | 0.00 | 0.00 | |||
| 20260904113457 | 54 | 335 | 2.0 | 4.0 | 0.00 | 0.00 | 0.00 | 87 | 1011.2 |
| 20260904113003 | 54 | 318 | 3.0 | 6.0 | 0.00 | 0.00 | 0.00 | 87 | 1011.1 |
| 20260904112840 | 0 | 0.0 | 0.0 | 0.00 | 0.00 | 0.00 | |||
| 20260904112457 | 54 | 339 | 1.0 | 4.0 | 0.00 | 0.00 | 0.00 | 86 | 1011.1 |
| 20260904112340 | 0 | 0.0 | 0.0 | 0.00 | 0.00 | 0.00 | |||
| 20260904111957 | 54 | 320 | 1.0 | 2.0 | 0.00 | 0.00 | 0.00 | 86 | 1011.0 |
| 20260904111841 | 0 | 0.0 | 0.0 | 0.00 | 0.00 | 0.00 | |||
| 20260904111458 | 54 | 323 | 3.0 | 6.0 | 0.00 | 0.00 | 0.00 | 85 | 1011.0 |
| 20260904111342 | 0 | 0.0 | 0.0 | 0.00 | 0.00 | 0.00 | |||
| 20260904110957 | 54 | 316 | 0.0 | 2.0 | 0.00 | 0.00 | 0.00 | 83 | 1011.1 |
| 20260904110841 | 0 | 0.0 | 0.0 | 0.00 | 0.00 | 0.00 | |||
| 20260904110458 | 54 | 117 | 1.0 | 2.0 | 0.00 | 0.00 | 0.00 | 84 | 1011.1 |
| 20260904105958 | 54 | 27 | 0.0 | 2.0 | 0.00 | 0.00 | 0.00 | 82 | 1011.1 |
| 20260904105841 | 0 | 0.0 | 0.0 | 0.00 | 0.00 | 0.00 | |||
| 20260904105459 | 54 | 76 | 0.0 | 2.0 | 0.00 | 0.00 | 0.00 | 82 | 1011.0 |
| 20260904105341 | 0 | 0.0 | 0.0 | 0.00 | 0.00 | 0.00 | |||
| 20260904104957 | 54 | 102 | 1.0 | 2.0 | 0.00 | 0.00 | 0.00 | 82 | 1011.0 |
| 20260904104839 | 0 | 0.0 | 0.0 | 0.00 | 0.00 | 0.00 | |||
| 20260904104457 | 54 | 47 | 0.0 | 1.0 | 0.00 | 0.00 | 0.00 | 84 | 1010.9 |
| 20260904104339 | 0 | 0.0 | 0.0 | 0.00 | 0.00 | 0.00 | |||
| 20260904103957 | 54 | 338 | 1.0 | 2.0 | 0.00 | 0.00 | 0.00 | 83 | 1010.9 |
| 20260904103838 | 0 | 0.0 | 0.0 | 0.00 | 0.00 | 0.00 | |||
| 20260904103457 | 54 | 351 | 0.0 | 2.0 | 0.00 | 0.00 | 0.00 | 82 | 1010.9 |
| 20260904103339 | 0 | 0.0 | 0.0 | 0.00 | 0.00 | 0.00 | |||
| 20260904102958 | 54 | 146 | 0.0 | 1.0 | 0.00 | 0.00 | 0.00 | 82 | 1010.9 |
| 20260904102838 | 0 | 0.0 | 0.0 | 0.00 | 0.00 | 0.00 | |||
| 20260904102457 | 54 | 124 | 0.0 | 1.0 | 0.00 | 0.00 | 0.00 | 82 | 1010.9 |
| 20260904102339 | 0 | 0.0 | 0.0 | 0.00 | 0.00 | 0.00 | |||
| 20260904101957 | 54 | 59 | 0.0 | 2.0 | 0.00 | 0.00 | 0.00 | 82 | 1010.9 |
| 20260904101844 | 0 | 0.0 | 0.0 | 0.00 | 0.00 | 0.00 | |||
| 20260904101458 | 54 | 14 | 0.0 | 2.0 | 0.00 | 0.00 | 0.00 | 84 | 1010.9 |
| 20260904101339 | 0 | 0.0 | 0.0 | 0.00 | 0.00 | 0.00 | |||
| 20260904100957 | 54 | 349 | 1.0 | 2.0 | 0.00 | 0.00 | 0.00 | 84 | 1010.9 |
| 20260904100839 | 0 | 0.0 | 0.0 | 0.00 | 0.00 | 0.00 | |||
| 20260904100458 | 54 | 341 | 1.0 | 2.0 | 0.00 | 0.00 | 0.00 | 83 | 1010.8 |
| 20260904100339 | 0 | 0.0 | 0.0 | 0.00 | 0.00 | 0.00 | |||
| 20260904095957 | 54 | 332 | 2.0 | 3.0 | 0.00 | 0.00 | 0.00 | 84 | 1010.8 |
| 20260904095839 | 0 | 0.0 | 0.0 | 0.00 | 0.00 | 0.00 | |||
| 20260904095457 | 54 | 341 | 3.0 | 5.0 | 0.00 | 0.00 | 0.00 | 84 | 1010.8 |
| 20260904094957 | 55 | 336 | 2.0 | 4.0 | 0.00 | 0.00 | 0.00 | 83 | 1010.7 |
| 20260904094837 | 0 | 0.0 | 0.0 | 0.00 | 0.00 | 0.00 | |||
| 20260904094457 | 54 | 341 | 3.0 | 6.0 | 0.00 | 0.00 | 0.00 | 83 | 1010.7 |
| 20260904093957 | 54 | 336 | 3.0 | 5.0 | 0.00 | 0.00 | 0.00 | 82 | 1010.7 |
| 20260904093837 | 0 | 0.0 | 0.0 | 0.00 | 0.00 | 0.00 | |||
| 20260904093500 | 54 | 332 | 3.0 | 4.0 | 0.00 | 0.00 | 0.00 | 83 | 1010.8 |
| 20260904093337 | 0 | 0.0 | 0.0 | 0.00 | 0.00 | 0.00 | |||
| 20260904092957 | 54 | 338 | 2.0 | 4.0 | 0.00 | 0.00 | 0.00 | 82 | 1010.8 |
| 20260904092837 | 0 | 0.0 | 0.0 | 0.00 | 0.00 | 0.00 | |||
| 20260904092457 | 54 | 356 | 2.0 | 3.0 | 0.00 | 0.00 | 0.00 | 82 | 1010.9 |
| 20260904091957 | 53 | 350 | 2.0 | 4.0 | 0.00 | 0.00 | 0.00 | 83 | 1010.9 |
| 20260904091457 | 53 | 330 | 2.0 | 3.0 | 0.00 | 0.00 | 0.00 | 81 | 1010.9 |
| 20260904091337 | 0 | 0.0 | 0.0 | 0.00 | 0.00 | 0.00 | |||
| 20260904090958 | 53 | 39 | 1.0 | 3.0 | 0.00 | 0.00 | 0.00 | 81 | 1010.9 |
| 20260904090838 | 0 | 0.0 | 0.0 | 0.00 | 0.00 | 0.00 | |||
| 20260904090457 | 53 | 28 | 2.0 | 3.0 | 0.00 | 0.00 | 0.00 | 81 | 1011.0 |
| 20260904090337 | 0 | 0.0 | 0.0 | 0.00 | 0.00 | 0.00 | |||
| 20260904085957 | 52 | 45 | 1.0 | 3.0 | 0.00 | 0.00 | 0.00 | 82 | 1011.0 |
| 20260904085834 | 0 | 0.0 | 0.0 | 0.00 | 0.00 | 0.00 | |||
| 20260904085457 | 52 | 13 | 2.0 | 3.0 | 0.00 | 0.00 | 0.00 | 81 | 1011.0 |
| 20260904085331 | 0 | 0.0 | 0.0 | 0.00 | 0.00 | 0.00 | |||
| 20260904084957 | 53 | 15 | 2.0 | 3.0 | 0.00 | 0.00 | 0.00 | 81 | 1011.0 |
| 20260904084831 | 0 | 0.0 | 0.0 | 0.00 | 0.00 | 0.00 | |||
| 20260904084457 | 53 | 37 | 2.0 | 3.0 | 0.00 | 0.00 | 0.00 | 81 | 1011.0 |
| 20260904084332 | 0 | 0.0 | 0.0 | 0.00 | 0.00 | 0.00 | |||
| 20260904083957 | 53 | 19 | 2.0 | 4.0 | 0.00 | 0.00 | 0.00 | 81 | 1011.0 |
| 20260904083828 | 0 | 0.0 | 0.0 | 0.00 | 0.00 | 0.00 | |||
| 20260904083457 | 53 | 26 | 2.0 | 3.0 | 0.00 | 0.00 | 0.00 | 81 | 1011.1 |
| 20260904083328 | 0 | 0.0 | 0.0 | 0.00 | 0.00 | 0.00 | |||
| 20260904082957 | 52 | 26 | 1.0 | 3.0 | 0.00 | 0.00 | 0.00 | 80 | 1011.1 |
| 20260904082829 | 0 | 0.0 | 0.0 | 0.00 | 0.00 | 0.00 | |||
| 20260904082457 | 53 | 33 | 1.0 | 3.0 | 0.00 | 0.00 | 0.00 | 79 | 1011.1 |
| 20260904081957 | 53 | 41 | 2.0 | 3.0 | 0.00 | 0.00 | 0.00 | 79 | 1011.1 |
| 20260904081829 | 0 | 0.0 | 0.0 | 0.00 | 0.00 | 0.00 | |||
| 20260904081457 | 53 | 38 | 1.0 | 3.0 | 0.00 | 0.00 | 0.00 | 80 | 1011.2 |
| 20260904081329 | 0 | 0.0 | 0.0 | 0.00 | 0.00 | 0.00 | |||
| 20260904080957 | 53 | 38 | 2.0 | 3.0 | 0.00 | 0.00 | 0.00 | 79 | 1011.2 |
| 20260904080834 | 0 | 0.0 | 0.0 | 0.00 | 0.00 | 0.00 | |||
| 20260904080457 | 53 | 46 | 2.0 | 3.0 | 0.00 | 0.00 | 0.00 | 79 | 1011.2 |
| 20260904080329 | 0 | 0.0 | 0.0 | 0.00 | 0.00 | 0.00 | |||
| 20260904075958 | 53 | 352 | 2.0 | 4.0 | 0.00 | 0.00 | 0.00 | 80 | 1011.2 |
| 20260904075826 | 0 | 0.0 | 0.0 | 0.00 | 0.00 | 0.00 | |||
| 20260904075457 | 53 | 11 | 1.0 | 2.0 | 0.00 | 0.00 | 0.00 | 77 | 1011.3 |
| 20260904075327 | 0 | 0.0 | 0.0 | 0.00 | 0.00 | 0.00 | |||
| 20260904074957 | 53 | 3 | 1.0 | 3.0 | 0.00 | 0.00 | 0.00 | 76 | 1011.2 |
| 20260904074826 | 0 | 0.0 | 0.0 | 0.00 | 0.00 | 0.00 | |||
| 20260904074457 | 53 | 37 | 2.0 | 3.0 | 0.00 | 0.00 | 0.00 | 76 | 1011.1 |
| 20260904074327 | 0 | 0.0 | 0.0 | 0.00 | 0.00 | 0.00 | |||
| 20260904073959 | 53 | 68 | 1.0 | 3.0 | 0.00 | 0.00 | 0.00 | 77 | 1011.1 |
| 20260904073827 | 0 | 0.0 | 0.0 | 0.00 | 0.00 | 0.00 | |||
| 20260904073457 | 53 | 41 | 1.0 | 3.0 | 0.00 | 0.00 | 0.00 | 77 | 1011.1 |
| 20260904073324 | 0 | 0.0 | 0.0 | 0.00 | 0.00 | 0.00 | |||
| 20260904072957 | 53 | 47 | 2.0 | 3.0 | 0.00 | 0.00 | 0.00 | 77 | 1011.0 |
| 20260904072824 | 0 | 0.0 | 0.0 | 0.00 | 0.00 | 0.00 | |||
| 20260904072457 | 53 | 2 | 2.0 | 4.0 | 0.00 | 0.00 | 0.00 | 78 | 1011.0 |
| 20260904072323 | 0 | 0.0 | 0.0 | 0.00 | 0.00 | 0.00 | |||
| 20260904071957 | 54 | 12 | 1.0 | 3.0 | 0.00 | 0.00 | 0.00 | 78 | 1011.0 |
| 20260904071824 | 0 | 0.0 | 0.0 | 0.00 | 0.00 | 0.00 | |||
| 20260904071457 | 54 | 40 | 2.0 | 2.0 | 0.00 | 0.00 | 0.00 | 78 | 1011.0 |
| 20260904071324 | 0 | 0.0 | 0.0 | 0.00 | 0.00 | 0.00 | |||
| 20260904070958 | 55 | 337 | 2.0 | 4.0 | 0.00 | 0.00 | 0.00 | 79 | 1010.9 |
| 20260904070457 | 55 | 346 | 1.0 | 2.0 | 0.00 | 0.00 | 0.00 | 80 | 1010.9 |
| 20260904065957 | 55 | 333 | 3.0 | 5.0 | 0.00 | 0.00 | 0.02 | 79 | 1010.9 |
| 20260904065821 | 0 | 0.0 | 0.0 | 0.00 | 0.00 | 0.00 | |||
| 20260904065457 | 55 | 334 | 3.0 | 5.0 | 0.00 | 0.00 | 0.02 | 78 | 1010.9 |
| 20260904065321 | 0 | 0.0 | 0.0 | 0.00 | 0.00 | 0.00 | |||
| 20260904064957 | 55 | 330 | 4.0 | 6.0 | 0.00 | 0.00 | 0.02 | 76 | 1010.9 |
| 20260904064822 | 0 | 0.0 | 0.0 | 0.00 | 0.00 | 0.00 | |||
| 20260904064457 | 54 | 334 | 2.0 | 5.0 | 0.00 | 0.00 | 0.02 | 77 | 1010.9 |
| 20260904063957 | 54 | 24 | 1.0 | 3.0 | 0.00 | 0.00 | 0.02 | 76 | 1011.0 |
| 20260904063822 | 0 | 0.0 | 0.0 | 0.00 | 0.00 | 0.00 | |||
| 20260904063457 | 54 | 346 | 2.0 | 3.0 | 0.00 | 0.00 | 0.02 | 76 | 1011.0 |
| 20260904063321 | 0 | 0.0 | 0.0 | 0.00 | 0.00 | 0.00 | |||
| 20260904062957 | 54 | 6 | 1.0 | 2.0 | 0.00 | 0.00 | 0.02 | 75 | 1011.0 |
| 20260904062821 | 0 | 0.0 | 0.0 | 0.00 | 0.00 | 0.00 | |||
| 20260904062457 | 55 | 1 | 2.0 | 3.0 | 0.00 | 0.00 | 0.02 | 75 | 1011.0 |
| 20260904062322 | 0 | 0.0 | 0.0 | 0.00 | 0.00 | 0.00 | |||
| 20260904061957 | 55 | 326 | 2.0 | 3.0 | 0.00 | 0.00 | 0.02 | 76 | 1011.0 |
| 20260904061822 | 0 | 0.0 | 0.0 | 0.00 | 0.00 | 0.00 | |||
| 20260904061459 | 54 | 356 | 2.0 | 5.0 | 0.00 | 0.00 | 0.02 | 76 | 1011.0 |
| 20260904061324 | 0 | 0.0 | 0.0 | 0.00 | 0.00 | 0.00 | |||
| 20260904060957 | 54 | 334 | 3.0 | 5.0 | 0.00 | 0.00 | 0.02 | 77 | 1011.0 |
| 20260904060828 | 0 | 0.0 | 0.0 | 0.00 | 0.00 | 0.00 | |||
| 20260904060458 | 54 | 33 | 1.0 | 2.0 | 0.00 | 0.00 | 0.02 | 76 | 1011.0 |
| 20260904055957 | 54 | 30 | 1.0 | 3.0 | 0.00 | 0.00 | 0.02 | 76 | 1011.0 |
| 20260904055821 | 0 | 0.0 | 0.0 | 0.00 | 0.00 | 0.00 | |||
| 20260904055458 | 54 | 43 | 2.0 | 3.0 | 0.00 | 0.00 | 0.02 | 75 | 1010.9 |
| 20260904054958 | 54 | 21 | 2.0 | 3.0 | 0.00 | 0.00 | 0.02 | 75 | 1010.9 |
| 20260904054821 | 0 | 0.0 | 0.0 | 0.00 | 0.00 | 0.00 | |||
| 20260904054457 | 54 | 40 | 2.0 | 3.0 | 0.00 | 0.00 | 0.02 | 75 | 1010.9 |
| 20260904054321 | 0 | 0.0 | 0.0 | 0.00 | 0.00 | 0.00 | |||
| 20260904053958 | 54 | 48 | 2.0 | 4.0 | 0.00 | 0.00 | 0.02 | 75 | 1010.9 |
| 20260904053820 | 0 | 0.0 | 0.0 | 0.00 | 0.00 | 0.00 | |||
| 20260904053457 | 54 | 33 | 2.0 | 3.0 | 0.00 | 0.00 | 0.02 | 75 | 1010.8 |
| 20260904053320 | 0 | 0.0 | 0.0 | 0.00 | 0.00 | 0.00 | |||
| 20260904052957 | 54 | 38 | 2.0 | 3.0 | 0.00 | 0.00 | 0.02 | 75 | 1010.8 |
| 20260904052819 | 0 | 0.0 | 0.0 | 0.00 | 0.00 | 0.00 | |||
| 20260904052457 | 54 | 46 | 2.0 | 3.0 | 0.00 | 0.00 | 0.02 | 75 | 1010.8 |
| 20260904052320 | 0 | 0.0 | 0.0 | 0.00 | 0.00 | 0.00 | |||
| 20260904051957 | 54 | 40 | 2.0 | 4.0 | 0.00 | 0.00 | 0.02 | 75 | 1010.8 |
| 20260904051820 | 0 | 0.0 | 0.0 | 0.00 | 0.00 | 0.00 | |||
| 20260904051457 | 54 | 38 | 1.0 | 3.0 | 0.00 | 0.00 | 0.02 | 75 | 1010.8 |
| 20260904051319 | 0 | 0.0 | 0.0 | 0.00 | 0.00 | 0.00 | |||
| 20260904050957 | 54 | 11 | 1.0 | 4.0 | 0.00 | 0.00 | 0.02 | 75 | 1010.8 |
| 20260904050820 | 0 | 0.0 | 0.0 | 0.00 | 0.00 | 0.00 | |||
| 20260904050458 | 54 | 23 | 1.0 | 3.0 | 0.00 | 0.00 | 0.02 | 76 | 1010.8 |
| 20260904050319 | 0 | 0.0 | 0.0 | 0.00 | 0.00 | 0.00 | |||
| 20260904045956 | 54 | 31 | 2.0 | 3.0 | 0.00 | 0.00 | 0.02 | 75 | 1010.8 |
| 20260904045821 | 0 | 0.0 | 0.0 | 0.00 | 0.00 | 0.00 | |||
| 20260904045458 | 55 | 34 | 2.0 | 3.0 | 0.00 | 0.00 | 0.02 | 75 | 1010.7 |
| 20260904045317 | 0 | 0.0 | 0.0 | 0.00 | 0.00 | 0.00 | |||
| 20260904044957 | 54 | 33 | 2.0 | 3.0 | 0.00 | 0.00 | 0.02 | 75 | 1010.7 |
| 20260904044458 | 54 | 45 | 2.0 | 3.0 | 0.00 | 0.00 | 0.02 | 75 | 1010.7 |
| 20260904044318 | 0 | 0.0 | 0.0 | 0.00 | 0.00 | 0.00 | |||
| 20260904043958 | 54 | 33 | 2.0 | 3.0 | 0.00 | 0.00 | 0.02 | 76 | 1010.7 |
| 20260904043819 | 0 | 0.0 | 0.0 | 0.00 | 0.00 | 0.00 | |||
| 20260904043457 | 55 | 41 | 2.0 | 2.0 | 0.00 | 0.00 | 0.02 | 75 | 1010.7 |
| 20260904042959 | 55 | 36 | 1.0 | 3.0 | 0.00 | 0.00 | 0.02 | 75 | 1010.7 |
| 20260904042817 | 0 | 0.0 | 0.0 | 0.00 | 0.00 | 0.00 | |||
| 20260904042459 | 55 | 28 | 2.0 | 3.0 | 0.00 | 0.00 | 0.02 | 75 | 1010.7 |
| 20260904041957 | 55 | 24 | 2.0 | 3.0 | 0.00 | 0.00 | 0.02 | 75 | 1010.8 |
| 20260904041818 | 0 | 0.0 | 0.0 | 0.00 | 0.00 | 0.00 | |||
| 20260904041458 | 55 | 33 | 1.0 | 3.0 | 0.00 | 0.00 | 0.02 | 75 | 1010.8 |
| 20260904040957 | 55 | 32 | 2.0 | 3.0 | 0.00 | 0.00 | 0.02 | 75 | 1010.8 |
| 20260904040817 | 0 | 0.0 | 0.0 | 0.00 | 0.00 | 0.00 | |||
| 20260904040458 | 55 | 35 | 2.0 | 3.0 | 0.00 | 0.00 | 0.02 | 75 | 1010.8 |
| 20260904040318 | 0 | 0.0 | 0.0 | 0.00 | 0.00 | 0.00 | |||
| 20260904035957 | 55 | 32 | 2.0 | 3.0 | 0.00 | 0.00 | 0.02 | 75 | 1010.9 |
| 20260904035815 | 0 | 0.0 | 0.0 | 0.00 | 0.00 | 0.00 | |||
| 20260904035458 | 55 | 14 | 1.0 | 2.0 | 0.00 | 0.00 | 0.02 | 74 | 1010.9 |
| 20260904035315 | 0 | 0.0 | 0.0 | 0.00 | 0.00 | 0.00 | |||
| 20260904034957 | 55 | 23 | 1.0 | 3.0 | 0.00 | 0.00 | 0.02 | 74 | 1010.9 |
| 20260904034816 | 0 | 0.0 | 0.0 | 0.00 | 0.00 | 0.00 | |||
| 20260904034458 | 55 | 21 | 1.0 | 2.0 | 0.00 | 0.00 | 0.02 | 74 | 1010.9 |
| 20260904033957 | 55 | 26 | 1.0 | 3.0 | 0.00 | 0.00 | 0.02 | 74 | 1010.8 |
| 20260904033816 | 0 | 0.0 | 0.0 | 0.00 | 0.00 | 0.00 | |||
| 20260904033457 | 55 | 20 | 1.0 | 3.0 | 0.00 | 0.00 | 0.02 | 74 | 1010.8 |
| 20260904032958 | 55 | 35 | 1.0 | 4.0 | 0.00 | 0.00 | 0.02 | 74 | 1010.8 |
| 20260904032815 | 0 | 0.0 | 0.0 | 0.00 | 0.00 | 0.00 | |||
| 20260904032457 | 56 | 29 | 1.0 | 2.0 | 0.00 | 0.00 | 0.02 | 73 | 1010.8 |
| 20260904032316 | 0 | 0.0 | 0.0 | 0.00 | 0.00 | 0.00 | |||
| 20260904031957 | 56 | 24 | 1.0 | 2.0 | 0.00 | 0.00 | 0.02 | 73 | 1010.7 |
| 20260904031457 | 56 | 53 | 1.0 | 2.0 | 0.00 | 0.00 | 0.02 | 73 | 1010.7 |
| 20260904031316 | 0 | 0.0 | 0.0 | 0.00 | 0.00 | 0.00 | |||
| 20260904030957 | 56 | 25 | 1.0 | 2.0 | 0.00 | 0.00 | 0.02 | 73 | 1010.7 |
| 20260904030815 | 0 | 0.0 | 0.0 | 0.00 | 0.00 | 0.00 | |||
| 20260904030457 | 56 | 40 | 0.0 | 2.0 | 0.00 | 0.00 | 0.02 | 72 | 1010.6 |
| 20260904030316 | 0 | 0.0 | 0.0 | 0.00 | 0.00 | 0.00 | |||
| 20260904025957 | 57 | 29 | 1.0 | 2.0 | 0.00 | 0.00 | 0.02 | 71 | 1010.6 |
| 20260904025817 | 0 | 0.0 | 0.0 | 0.00 | 0.00 | 0.00 | |||
| 20260904025457 | 57 | 10 | 0.0 | 1.0 | 0.00 | 0.00 | 0.02 | 71 | 1010.6 |
| 20260904025316 | 0 | 0.0 | 0.0 | 0.00 | 0.00 | 0.00 | |||
| 20260904025000 | 58 | 33 | 0.0 | 2.0 | 0.00 | 0.00 | 0.02 | 70 | 1010.5 |
| 20260904024816 | 0 | 0.0 | 0.0 | 0.00 | 0.00 | 0.00 | |||
| 20260904024457 | 58 | 331 | 0.0 | 0.0 | 0.00 | 0.00 | 0.02 | 69 | 1010.6 |
| 20260904024316 | 0 | 0.0 | 0.0 | 0.00 | 0.00 | 0.00 | |||
| 20260904023957 | 59 | 33 | 0.0 | 1.0 | 0.00 | 0.00 | 0.02 | 68 | 1010.6 |
| 20260904023816 | 0 | 0.0 | 0.0 | 0.00 | 0.00 | 0.00 | |||
| 20260904023457 | 59 | 321 | 1.0 | 2.0 | 0.00 | 0.00 | 0.02 | 67 | 1010.5 |
| 20260904023313 | 0 | 0.0 | 0.0 | 0.00 | 0.00 | 0.00 | |||
| 20260904022957 | 60 | 297 | 0.0 | 2.0 | 0.00 | 0.00 | 0.02 | 67 | 1010.5 |
| 20260904022814 | 0 | 0.0 | 0.0 | 0.00 | 0.00 | 0.00 | |||
| 20260904022457 | 60 | 303 | 1.0 | 2.0 | 0.00 | 0.00 | 0.02 | 66 | 1010.4 |
| 20260904022314 | 0 | 0.0 | 0.0 | 0.00 | 0.00 | 0.00 | |||
| 20260904021957 | 60 | 307 | 2.0 | 3.0 | 0.00 | 0.00 | 0.02 | 66 | 1010.4 |
| 20260904021813 | 0 | 0.0 | 0.0 | 0.00 | 0.00 | 0.00 | |||
| 20260904021458 | 62 | 294 | 2.0 | 3.0 | 0.00 | 0.00 | 0.02 | 64 | 1010.4 |
| 20260904021314 | 0 | 0.0 | 0.0 | 0.00 | 0.00 | 0.00 | |||
| 20260904020957 | 62 | 271 | 2.0 | 3.0 | 0.00 | 0.00 | 0.02 | 63 | 1010.3 |
| 20260904020815 | 0 | 0.0 | 0.0 | 0.00 | 0.00 | 0.00 | |||
| 20260904020500 | 62 | 236 | 2.0 | 4.0 | 0.00 | 0.00 | 0.02 | 62 | 1010.3 |
| 20260904020311 | 0 | 0.0 | 0.0 | 0.00 | 0.00 | 0.00 | |||
| 20260904015958 | 62 | 250 | 3.0 | 5.0 | 0.00 | 0.00 | 0.02 | 62 | 1010.2 |
| 20260904015813 | 0 | 0.0 | 0.0 | 0.00 | 0.00 | 0.00 | |||
| 20260904015457 | 62 | 244 | 2.0 | 4.0 | 0.00 | 0.00 | 0.02 | 63 | 1010.2 |
| 20260904015313 | 0 | 0.0 | 0.0 | 0.00 | 0.00 | 0.00 | |||
| 20260904014958 | 62 | 239 | 4.0 | 5.0 | 0.00 | 0.00 | 0.02 | 61 | 1010.1 |
| 20260904014808 | 0 | 0.0 | 0.0 | 0.00 | 0.00 | 0.00 | |||
| 20260904014458 | 62 | 151 | 3.0 | 4.0 | 0.00 | 0.00 | 0.02 | 61 | 1010.1 |
| 20260904013957 | 62 | 182 | 2.0 | 3.0 | 0.00 | 0.00 | 0.02 | 61 | 1010.1 |
| 20260904013808 | 0 | 0.0 | 0.0 | 0.00 | 0.00 | 0.00 | |||
| 20260904013457 | 62 | 222 | 3.0 | 5.0 | 0.00 | 0.00 | 0.02 | 60 | 1010.0 |
| 20260904013309 | 0 | 0.0 | 0.0 | 0.00 | 0.00 | 0.00 | |||
| 20260904012957 | 62 | 251 | 2.0 | 5.0 | 0.00 | 0.00 | 0.02 | 61 | 1010.0 |
| 20260904012809 | 0 | 0.0 | 0.0 | 0.00 | 0.00 | 0.00 | |||
| 20260904012457 | 62 | 170 | 3.0 | 4.0 | 0.00 | 0.00 | 0.02 | 61 | 1010.1 |
| 20260904012309 | 0 | 0.0 | 0.0 | 0.00 | 0.00 | 0.00 | |||
| 20260904011957 | 62 | 161 | 4.0 | 6.0 | 0.00 | 0.00 | 0.02 | 60 | 1010.0 |
| 20260904011809 | 0 | 0.0 | 0.0 | 0.00 | 0.00 | 0.00 | |||
| 20260904011458 | 62 | 173 | 3.0 | 4.0 | 0.00 | 0.00 | 0.02 | 61 | 1010.0 |
| 20260904011309 | 0 | 0.0 | 0.0 | 0.00 | 0.00 | 0.00 | |||
| 20260904010959 | 62 | 169 | 3.0 | 4.0 | 0.00 | 0.00 | 0.02 | 60 | 1010.0 |
| 20260904010808 | 0 | 0.0 | 0.0 | 0.00 | 0.00 | 0.00 | |||
| 20260904010457 | 62 | 217 | 4.0 | 6.0 | 0.00 | 0.00 | 0.02 | 61 | 1010.0 |
| 20260904010309 | 0 | 0.0 | 0.0 | 0.00 | 0.00 | 0.00 | |||
| 20260904005957 | 62 | 213 | 1.0 | 4.0 | 0.00 | 0.00 | 0.02 | 62 | 1010.0 |
| 20260904005809 | 0 | 0.0 | 0.0 | 0.00 | 0.00 | 0.00 | |||
| 20260904005457 | 62 | 164 | 3.0 | 4.0 | 0.00 | 0.00 | 0.02 | 61 | 1010.0 |
| 20260904005307 | 0 | 0.0 | 0.0 | 0.00 | 0.00 | 0.00 | |||
| 20260904004957 | 62 | 174 | 4.0 | 5.0 | 0.00 | 0.00 | 0.02 | 61 | 1010.0 |
| 20260904004457 | 62 | 166 | 5.0 | 6.0 | 0.00 | 0.00 | 0.02 | 61 | 1009.9 |
| 20260904004306 | 0 | 0.0 | 0.0 | 0.00 | 0.00 | 0.00 | |||
| 20260904003957 | 63 | 171 | 4.0 | 6.0 | 0.00 | 0.00 | 0.02 | 60 | 1009.9 |
| 20260904003808 | 0 | 0.0 | 0.0 | 0.00 | 0.00 | 0.00 | |||
| 20260904003458 | 63 | 199 | 3.0 | 5.0 | 0.00 | 0.00 | 0.02 | 59 | 1009.8 |
| 20260904002957 | 64 | 176 | 4.0 | 5.0 | 0.00 | 0.00 | 0.02 | 57 | 1009.8 |
| 20260904002807 | 0 | 0.0 | 0.0 | 0.00 | 0.00 | 0.00 | |||
| 20260904002457 | 63 | 218 | 4.0 | 7.0 | 0.00 | 0.00 | 0.02 | 59 | 1009.7 |
| 20260904001957 | 63 | 168 | 3.0 | 4.0 | 0.00 | 0.00 | 0.02 | 58 | 1009.8 |
| 20260904001808 | 0 | 0.0 | 0.0 | 0.00 | 0.00 | 0.00 | |||
| 20260904001457 | 63 | 173 | 3.0 | 7.0 | 0.00 | 0.00 | 0.02 | 59 | 1009.7 |
| 20260904001307 | 0 | 0.0 | 0.0 | 0.00 | 0.00 | 0.00 | |||
| 20260904000957 | 63 | 156 | 5.0 | 6.0 | 0.00 | 0.00 | 0.02 | 58 | 1009.8 |
| 20260904000807 | 0 | 0.0 | 0.0 | 0.00 | 0.00 | 0.00 | |||
| 20260904000458 | 63 | 179 | 4.0 | 6.0 | 0.00 | 0.00 | 0.02 | 59 | 1009.7 |
| 20260904000307 | 0 | 0.0 | 0.0 | 0.00 | 0.00 | 0.00 | |||
| 20260903235958 | 64 | 181 | 4.0 | 6.0 | 0.00 | 0.00 | 0.02 | 58 | 1009.7 |
| 20260903235807 | 0 | 0.0 | 0.0 | 0.00 | 0.00 | 0.00 | |||
| 20260903235457 | 64 | 205 | 4.0 | 6.0 | 0.00 | 0.00 | 0.02 | 57 | 1009.5 |
| 20260903235305 | 0 | 0.0 | 0.0 | 0.00 | 0.00 | 0.00 | |||
| 20260903234957 | 63 | 162 | 4.0 | 6.0 | 0.00 | 0.00 | 0.02 | 58 | 1009.7 |
| 20260903234801 | 0 | 0.0 | 0.0 | 0.00 | 0.00 | 0.00 | |||
| 20260903234457 | 64 | 212 | 3.0 | 5.0 | 0.00 | 0.00 | 0.02 | 58 | 1009.7 |
| 20260903234302 | 0 | 0.0 | 0.0 | 0.00 | 0.00 | 0.00 | |||
| 20260903233957 | 64 | 175 | 4.0 | 6.0 | 0.00 | 0.00 | 0.02 | 57 | 1009.5 |
| 20260903233457 | 64 | 201 | 4.0 | 7.0 | 0.00 | 0.00 | 0.02 | 56 | 1009.5 |
| 20260903233301 | 0 | 0.0 | 0.0 | 0.00 | 0.00 | 0.00 | |||
| 20260903232957 | 64 | 160 | 6.0 | 9.0 | 0.00 | 0.00 | 0.02 | 56 | 1009.5 |
| 20260903232458 | 64 | 198 | 4.0 | 9.0 | 0.00 | 0.00 | 0.02 | 56 | 1009.4 |
| 20260903231957 | 63 | 170 | 5.0 | 8.0 | 0.00 | 0.00 | 0.02 | 58 | 1009.4 |
| 20260903231802 | 0 | 0.0 | 0.0 | 0.00 | 0.00 | 0.00 | |||
| 20260903231458 | 63 | 182 | 5.0 | 8.0 | 0.00 | 0.00 | 0.02 | 58 | 1009.4 |
| 20260903231303 | 0 | 0.0 | 0.0 | 0.00 | 0.00 | 0.00 | |||
| 20260903230957 | 63 | 160 | 4.0 | 7.0 | 0.00 | 0.00 | 0.02 | 59 | 1009.4 |
| 20260903230802 | 0 | 0.0 | 0.0 | 0.00 | 0.00 | 0.00 | |||
| 20260903230457 | 64 | 190 | 7.0 | 11.0 | 0.00 | 0.00 | 0.02 | 57 | 1009.5 |
| 20260903230302 | 0 | 0.0 | 0.0 | 0.00 | 0.00 | 0.00 | |||
| 20260903225957 | 64 | 176 | 5.0 | 7.0 | 0.00 | 0.00 | 0.02 | 57 | 1009.5 |
| 20260903225803 | 0 | 0.0 | 0.0 | 0.00 | 0.00 | 0.00 | |||
| 20260903225458 | 64 | 182 | 6.0 | 10.0 | 0.00 | 0.00 | 0.02 | 57 | 1009.5 |
| 20260903225259 | 0 | 0.0 | 0.0 | 0.00 | 0.00 | 0.00 | |||
| 20260903224957 | 64 | 179 | 5.0 | 8.0 | 0.00 | 0.00 | 0.02 | 58 | 1009.7 |
| 20260903224759 | 0 | 0.0 | 0.0 | 0.00 | 0.00 | 0.00 | |||
| 20260903224457 | 64 | 167 | 7.0 | 10.0 | 0.00 | 0.00 | 0.02 | 59 | 1009.8 |
| 20260903224259 | 0 | 0.0 | 0.0 | 0.00 | 0.00 | 0.00 | |||
| 20260903223957 | 64 | 129 | 3.0 | 4.0 | 0.00 | 0.00 | 0.02 | 59 | 1009.7 |
| 20260903223800 | 0 | 0.0 | 0.0 | 0.00 | 0.00 | 0.00 | |||
| 20260903223458 | 64 | 158 | 4.0 | 7.0 | 0.00 | 0.00 | 0.02 | 59 | 1009.5 |
| 20260903223259 | 0 | 0.0 | 0.0 | 0.00 | 0.00 | 0.00 | |||
| 20260903222957 | 64 | 185 | 9.0 | 11.0 | 0.00 | 0.00 | 0.02 | 61 | 1009.8 |
| 20260903222800 | 0 | 0.0 | 0.0 | 0.00 | 0.00 | 0.00 | |||
| 20260903222457 | 65 | 179 | 8.0 | 12.0 | 0.00 | 0.00 | 0.02 | 59 | 1009.4 |
| 20260903222259 | 0 | 0.0 | 0.0 | 0.00 | 0.00 | 0.00 | |||
| 20260903221958 | 64 | 147 | 3.0 | 8.0 | 0.00 | 0.00 | 0.02 | 61 | 1009.5 |
| 20260903221800 | 0 | 0.0 | 0.0 | 0.00 | 0.00 | 0.00 | |||
| 20260903221457 | 65 | 174 | 4.0 | 7.0 | 0.00 | 0.00 | 0.02 | 60 | 1009.8 |
| 20260903221259 | 0 | 0.0 | 0.0 | 0.00 | 0.00 | 0.00 | |||
| 20260903220957 | 65 | 126 | 4.0 | 8.0 | 0.00 | 0.00 | 0.02 | 60 | 1009.5 |
| 20260903220800 | 0 | 0.0 | 0.0 | 0.00 | 0.00 | 0.00 | |||
| 20260903220457 | 64 | 234 | 2.0 | 4.0 | 0.00 | 0.00 | 0.02 | 61 | 1009.4 |
| 20260903220300 | 0 | 0.0 | 0.0 | 0.00 | 0.00 | 0.00 | |||
| 20260903215957 | 63 | 132 | 3.0 | 5.0 | 0.00 | 0.00 | 0.02 | 63 | 1009.8 |
| 20260903215800 | 0 | 0.0 | 0.0 | 0.00 | 0.00 | 0.00 | |||
| 20260903215458 | 62 | 151 | 3.0 | 6.0 | 0.00 | 0.00 | 0.02 | 63 | 1009.8 |
| 20260903215257 | 0 | 0.0 | 0.0 | 0.00 | 0.00 | 0.00 | |||
| 20260903214957 | 62 | 74 | 4.0 | 7.0 | 0.00 | 0.00 | 0.02 | 65 | 1009.9 |
| 20260903214758 | 0 | 0.0 | 0.0 | 0.00 | 0.00 | 0.00 | |||
| 20260903214457 | 62 | 126 | 2.0 | 4.0 | 0.00 | 0.00 | 0.02 | 65 | 1009.8 |
| 20260903214257 | 0 | 0.0 | 0.0 | 0.00 | 0.00 | 0.00 | |||
| 20260903213957 | 62 | 131 | 4.0 | 6.0 | 0.00 | 0.00 | 0.02 | 65 | 1009.8 |
| 20260903213757 | 0 | 0.0 | 0.0 | 0.00 | 0.00 | 0.00 | |||
| 20260903213457 | 62 | 141 | 4.0 | 6.0 | 0.00 | 0.00 | 0.02 | 66 | 1010.0 |
| 20260903213258 | 0 | 0.0 | 0.0 | 0.00 | 0.00 | 0.00 | |||
| 20260903212957 | 62 | 160 | 3.0 | 6.0 | 0.00 | 0.00 | 0.02 | 66 | 1010.0 |
| 20260903212457 | 61 | 164 | 5.0 | 8.0 | 0.00 | 0.00 | 0.02 | 65 | 1009.8 |
| 20260903212258 | 0 | 0.0 | 0.0 | 0.00 | 0.00 | 0.00 | |||
| 20260903211957 | 61 | 144 | 4.0 | 5.0 | 0.00 | 0.00 | 0.02 | 66 | 1009.9 |
| 20260903211757 | 0 | 0.0 | 0.0 | 0.00 | 0.00 | 0.00 | |||
| 20260903211457 | 60 | 118 | 4.0 | 7.0 | 0.00 | 0.00 | 0.02 | 67 | 1010.0 |
| 20260903211258 | 0 | 0.0 | 0.0 | 0.00 | 0.00 | 0.00 | |||
| 20260903210957 | 60 | 103 | 3.0 | 6.0 | 0.00 | 0.00 | 0.02 | 69 | 1010.0 |
| 20260903210759 | 0 | 0.0 | 0.0 | 0.00 | 0.00 | 0.00 | |||
| 20260903210458 | 60 | 150 | 2.0 | 4.0 | 0.00 | 0.00 | 0.02 | 69 | 1010.0 |
| 20260903210258 | 0 | 0.0 | 0.0 | 0.00 | 0.00 | 0.00 | |||
| 20260903205957 | 60 | 135 | 3.0 | 4.0 | 0.00 | 0.00 | 0.02 | 69 | 1010.0 |
| 20260903205756 | 0 | 0.0 | 0.0 | 0.00 | 0.00 | 0.00 | |||
| 20260903205457 | 60 | 117 | 3.0 | 5.0 | 0.00 | 0.00 | 0.02 | 69 | 1010.0 |
| 20260903205255 | 0 | 0.0 | 0.0 | 0.00 | 0.00 | 0.00 | |||
| 20260903204957 | 60 | 165 | 2.0 | 4.0 | 0.00 | 0.00 | 0.02 | 69 | 1010.0 |
| 20260903204755 | 0 | 0.0 | 0.0 | 0.00 | 0.00 | 0.00 | |||
| 20260903204458 | 60 | 133 | 2.0 | 4.0 | 0.00 | 0.00 | 0.02 | 70 | 1009.9 |
| 20260903204256 | 0 | 0.0 | 0.0 | 0.00 | 0.00 | 0.00 | |||
| 20260903203958 | 59 | 124 | 3.0 | 4.0 | 0.00 | 0.00 | 0.02 | 70 | 1009.9 |
| 20260903203457 | 59 | 119 | 3.0 | 4.0 | 0.00 | 0.00 | 0.02 | 70 | 1009.9 |
| 20260903203255 | 0 | 0.0 | 0.0 | 0.00 | 0.00 | 0.00 | |||
| 20260903202958 | 59 | 141 | 2.0 | 4.0 | 0.00 | 0.00 | 0.02 | 70 | 1009.9 |
| 20260903202756 | 0 | 0.0 | 0.0 | 0.00 | 0.00 | 0.00 | |||
| 20260903202457 | 59 | 155 | 4.0 | 6.0 | 0.00 | 0.00 | 0.02 | 70 | 1009.9 |
| 20260903202256 | 0 | 0.0 | 0.0 | 0.00 | 0.00 | 0.00 | |||
| 20260903201957 | 60 | 150 | 1.0 | 4.0 | 0.00 | 0.00 | 0.02 | 70 | 1009.9 |
| 20260903201756 | 0 | 0.0 | 0.0 | 0.00 | 0.00 | 0.00 | |||
| 20260903201457 | 60 | 154 | 2.0 | 3.0 | 0.00 | 0.00 | 0.02 | 70 | 1009.9 |
| 20260903201256 | 0 | 0.0 | 0.0 | 0.00 | 0.00 | 0.00 | |||
| 20260903200958 | 60 | 148 | 2.0 | 5.0 | 0.00 | 0.00 | 0.02 | 70 | 1009.8 |
| 20260903200756 | 0 | 0.0 | 0.0 | 0.00 | 0.00 | 0.00 | |||
| 20260903200457 | 59 | 125 | 2.0 | 4.0 | 0.00 | 0.00 | 0.02 | 69 | 1009.8 |
| 20260903200253 | 0 | 0.0 | 0.0 | 0.00 | 0.00 | 0.00 | |||
| 20260903195957 | 59 | 133 | 2.0 | 5.0 | 0.00 | 0.00 | 0.02 | 70 | 1009.8 |
| 20260903195754 | 0 | 0.0 | 0.0 | 0.00 | 0.00 | 0.00 | |||
| 20260903195457 | 60 | 139 | 4.0 | 9.0 | 0.00 | 0.00 | 0.02 | 70 | 1009.7 |
| 20260903195253 | 0 | 0.0 | 0.0 | 0.00 | 0.00 | 0.00 | |||
| 20260903194957 | 60 | 170 | 4.0 | 7.0 | 0.00 | 0.00 | 0.02 | 70 | 1009.7 |
| 20260903194754 | 0 | 0.0 | 0.0 | 0.00 | 0.00 | 0.00 | |||
| 20260903194458 | 60 | 150 | 3.0 | 4.0 | 0.00 | 0.00 | 0.02 | 70 | 1009.5 |
| 20260903194253 | 0 | 0.0 | 0.0 | 0.00 | 0.00 | 0.00 | |||
| 20260903193959 | 59 | 177 | 2.0 | 3.0 | 0.00 | 0.00 | 0.02 | 73 | 1009.5 |
| 20260903193754 | 0 | 0.0 | 0.0 | 0.00 | 0.00 | 0.00 | |||
| 20260903193457 | 59 | 117 | 5.0 | 7.0 | 0.00 | 0.00 | 0.02 | 70 | 1009.5 |
| 20260903193253 | 0 | 0.0 | 0.0 | 0.00 | 0.00 | 0.00 | |||
| 20260903192957 | 59 | 141 | 4.0 | 7.0 | 0.00 | 0.00 | 0.02 | 71 | 1009.5 |
| 20260903192754 | 0 | 0.0 | 0.0 | 0.00 | 0.00 | 0.00 | |||
| 20260903192457 | 59 | 134 | 4.0 | 6.0 | 0.00 | 0.00 | 0.02 | 72 | 1009.4 |
| 20260903192254 | 0 | 0.0 | 0.0 | 0.00 | 0.00 | 0.00 | |||
| 20260903191958 | 59 | 124 | 3.0 | 7.0 | 0.00 | 0.00 | 0.02 | 71 | 1009.3 |
| 20260903191457 | 60 | 92 | 4.0 | 6.0 | 0.00 | 0.00 | 0.02 | 71 | 1009.3 |
| 20260903191254 | 0 | 0.0 | 0.0 | 0.00 | 0.00 | 0.00 | |||
| 20260903190958 | 60 | 125 | 4.0 | 7.0 | 0.00 | 0.00 | 0.02 | 71 | 1009.3 |
| 20260903190457 | 60 | 116 | 4.0 | 8.0 | 0.00 | 0.00 | 0.02 | 71 | 1009.2 |
| 20260903185958 | 60 | 130 | 4.0 | 6.0 | 0.00 | 0.00 | 0.02 | 72 | 1009.2 |
| 20260903185752 | 0 | 0.0 | 0.0 | 0.00 | 0.00 | 0.00 | |||
| 20260903185504 | 60 | 110 | 3.0 | 5.0 | 0.00 | 0.00 | 0.02 | 71 | 1009.3 |
| 20260903185252 | 0 | 0.0 | 0.0 | 0.00 | 0.00 | 0.00 | |||
| 20260903184957 | 60 | 126 | 3.0 | 5.0 | 0.00 | 0.00 | 0.02 | 71 | 1009.3 |
| 20260903184757 | 0 | 0.0 | 0.0 | 0.00 | 0.00 | 0.00 | |||
| 20260903184457 | 60 | 152 | 5.0 | 7.0 | 0.00 | 0.00 | 0.02 | 70 | 1008.9 |
| 20260903183957 | 59 | 145 | 2.0 | 5.0 | 0.00 | 0.00 | 0.02 | 74 | 1009.1 |
| 20260903183756 | 0 | 0.0 | 0.0 | 0.00 | 0.00 | 0.00 | |||
| 20260903183457 | 60 | 149 | 4.0 | 6.0 | 0.00 | 0.00 | 0.02 | 74 | 1009.1 |
| 20260903183252 | 0 | 0.0 | 0.0 | 0.00 | 0.00 | 0.00 | |||
| 20260903182957 | 60 | 131 | 4.0 | 6.0 | 0.00 | 0.00 | 0.02 | 73 | 1009.2 |
| 20260903182752 | 0 | 0.0 | 0.0 | 0.00 | 0.00 | 0.00 | |||
| 20260903182458 | 60 | 161 | 5.0 | 6.0 | 0.00 | 0.00 | 0.02 | 72 | 1008.9 |
| 20260903182252 | 0 | 0.0 | 0.0 | 0.00 | 0.00 | 0.00 | |||
| 20260903181957 | 60 | 158 | 3.0 | 6.0 | 0.00 | 0.00 | 0.02 | 74 | 1008.7 |
| 20260903181752 | 0 | 0.0 | 0.0 | 0.00 | 0.00 | 0.00 | |||
| 20260903181459 | 59 | 118 | 4.0 | 6.0 | 0.00 | 0.00 | 0.02 | 74 | 1008.7 |
| 20260903181252 | 0 | 0.0 | 0.0 | 0.00 | 0.00 | 0.00 | |||
| 20260903180959 | 58 | 170 | 3.0 | 7.0 | 0.00 | 0.00 | 0.02 | 77 | 1008.7 |
| 20260903180457 | 56 | 132 | 3.0 | 4.0 | 0.00 | 0.00 | 0.02 | 80 | 1008.9 |
| 20260903180250 | 0 | 0.0 | 0.0 | 0.00 | 0.00 | 0.00 | |||
| 20260903175958 | 56 | 122 | 4.0 | 6.0 | 0.00 | 0.00 | 0.02 | 80 | 1009.0 |
| 20260903175751 | 0 | 0.0 | 0.0 | 0.00 | 0.00 | 0.00 | |||
| 20260903175457 | 56 | 115 | 1.0 | 3.0 | 0.00 | 0.00 | 0.02 | 80 | 1008.9 |
| 20260903174957 | 56 | 128 | 2.0 | 3.0 | 0.00 | 0.00 | 0.02 | 81 | 1008.9 |
| 20260903174746 | 0 | 0.0 | 0.0 | 0.00 | 0.00 | 0.00 | |||
| 20260903174458 | 56 | 116 | 1.0 | 4.0 | 0.00 | 0.00 | 0.02 | 81 | 1008.8 |
| 20260903174246 | 0 | 0.0 | 0.0 | 0.00 | 0.00 | 0.00 | |||
| 20260903173957 | 55 | 128 | 3.0 | 5.0 | 0.00 | 0.00 | 0.02 | 82 | 1008.7 |
| 20260903173746 | 0 | 0.0 | 0.0 | 0.00 | 0.00 | 0.00 | |||
| 20260903173457 | 55 | 82 | 3.0 | 6.0 | 0.00 | 0.00 | 0.02 | 82 | 1008.8 |
| 20260903173247 | 0 | 0.0 | 0.0 | 0.00 | 0.00 | 0.00 | |||
| 20260903172957 | 55 | 104 | 6.0 | 8.0 | 0.00 | 0.00 | 0.02 | 82 | 1008.8 |
| 20260903172747 | 0 | 0.0 | 0.0 | 0.00 | 0.00 | 0.00 | |||
| 20260903172459 | 55 | 106 | 3.0 | 5.0 | 0.00 | 0.00 | 0.02 | 82 | 1008.7 |
| 20260903172247 | 0 | 0.0 | 0.0 | 0.00 | 0.00 | 0.00 | |||
| 20260903171957 | 55 | 123 | 3.0 | 7.0 | 0.00 | 0.00 | 0.02 | 83 | 1008.7 |
| 20260903171746 | 0 | 0.0 | 0.0 | 0.00 | 0.00 | 0.00 | |||
| 20260903171457 | 54 | 135 | 2.0 | 2.0 | 0.00 | 0.00 | 0.02 | 84 | 1008.7 |
| 20260903171247 | 0 | 0.0 | 0.0 | 0.00 | 0.00 | 0.00 | |||
| 20260903170958 | 54 | 102 | 4.0 | 6.0 | 0.00 | 0.00 | 0.02 | 85 | 1008.6 |
| 20260903170458 | 54 | 106 | 2.0 | 4.0 | 0.00 | 0.00 | 0.02 | 86 | 1008.6 |
| 20260903170247 | 0 | 0.0 | 0.0 | 0.00 | 0.00 | 0.00 | |||
| 20260903165957 | 54 | 114 | 3.0 | 4.0 | 0.00 | 0.00 | 0.02 | 86 | 1008.6 |
| 20260903165748 | 0 | 0.0 | 0.0 | 0.00 | 0.00 | 0.00 | |||
| 20260903165457 | 54 | 106 | 4.0 | 6.0 | 0.00 | 0.00 | 0.02 | 86 | 1008.6 |
| 20260903165245 | 0 | 0.0 | 0.0 | 0.00 | 0.00 | 0.00 | |||
| 20260903164958 | 54 | 109 | 4.0 | 8.0 | 0.00 | 0.00 | 0.02 | 87 | 1008.6 |
| 20260903164744 | 0 | 0.0 | 0.0 | 0.00 | 0.00 | 0.00 | |||
| 20260903164458 | 54 | 116 | 3.0 | 5.0 | 0.00 | 0.00 | 0.02 | 86 | 1008.6 |
| 20260903164245 | 0 | 0.0 | 0.0 | 0.00 | 0.00 | 0.00 | |||
| 20260903163957 | 54 | 120 | 4.0 | 7.0 | 0.00 | 0.00 | 0.02 | 86 | 1008.5 |
| 20260903163744 | 0 | 0.0 | 0.0 | 0.00 | 0.00 | 0.00 | |||
| 20260903163459 | 54 | 113 | 4.0 | 7.0 | 0.00 | 0.00 | 0.02 | 86 | 1008.5 |
| 20260903162957 | 54 | 117 | 4.0 | 6.0 | 0.00 | 0.00 | 0.02 | 86 | 1008.4 |
| 20260903162742 | 0 | 0.0 | 0.0 | 0.00 | 0.00 | 0.00 | |||
| 20260903162458 | 54 | 106 | 6.0 | 8.0 | 0.00 | 0.00 | 0.02 | 85 | 1008.3 |
| 20260903162241 | 0 | 0.0 | 0.0 | 0.00 | 0.00 | 0.00 | |||
| 20260903161958 | 54 | 120 | 3.0 | 5.0 | 0.00 | 0.00 | 0.02 | 86 | 1008.3 |
| 20260903161742 | 0 | 0.0 | 0.0 | 0.00 | 0.00 | 0.00 | |||
| 20260903161457 | 54 | 117 | 4.0 | 6.0 | 0.00 | 0.00 | 0.02 | 85 | 1008.3 |
| 20260903161242 | 0 | 0.0 | 0.0 | 0.00 | 0.00 | 0.00 | |||
| 20260903160959 | 54 | 119 | 4.0 | 8.0 | 0.00 | 0.00 | 0.02 | 85 | 1008.3 |
| 20260903160742 | 0 | 0.0 | 0.0 | 0.00 | 0.00 | 0.00 | |||
| 20260903160457 | 54 | 103 | 5.0 | 6.0 | 0.00 | 0.00 | 0.02 | 86 | 1008.1 |
| 20260903160243 | 0 | 0.0 | 0.0 | 0.00 | 0.00 | 0.00 | |||
| 20260903155957 | 53 | 118 | 3.0 | 6.0 | 0.00 | 0.00 | 0.02 | 88 | 1008.1 |
| 20260903155742 | 0 | 0.0 | 0.0 | 0.00 | 0.00 | 0.00 | |||
| 20260903155458 | 53 | 117 | 3.0 | 5.0 | 0.00 | 0.00 | 0.02 | 88 | 1008.1 |
| 20260903155242 | 0 | 0.0 | 0.0 | 0.00 | 0.00 | 0.00 | |||
| 20260903154957 | 53 | 119 | 4.0 | 6.0 | 0.00 | 0.00 | 0.02 | 89 | 1008.1 |
| 20260903154737 | 0 | 0.0 | 0.0 | 0.00 | 0.00 | 0.00 | |||
| 20260903154458 | 53 | 124 | 4.0 | 7.0 | 0.00 | 0.00 | 0.02 | 89 | 1008.1 |
| 20260903154236 | 0 | 0.0 | 0.0 | 0.00 | 0.00 | 0.00 | |||
| 20260903153957 | 53 | 117 | 4.0 | 6.0 | 0.00 | 0.00 | 0.02 | 89 | 1008.1 |
| 20260903153742 | 0 | 0.0 | 0.0 | 0.00 | 0.00 | 0.00 | |||
| 20260903153458 | 53 | 121 | 5.0 | 8.0 | 0.00 | 0.00 | 0.02 | 89 | 1008.0 |
| 20260903153243 | 0 | 0.0 | 0.0 | 0.00 | 0.00 | 0.00 | |||
| 20260903152957 | 53 | 134 | 4.0 | 7.0 | 0.00 | 0.00 | 0.02 | 89 | 1007.9 |
| 20260903152736 | 0 | 0.0 | 0.0 | 0.00 | 0.00 | 0.00 | |||
| 20260903152458 | 53 | 114 | 6.0 | 9.0 | 0.00 | 0.00 | 0.02 | 89 | 1007.9 |
| 20260903152236 | 0 | 0.0 | 0.0 | 0.00 | 0.00 | 0.00 | |||
| 20260903151958 | 53 | 121 | 5.0 | 6.0 | 0.00 | 0.00 | 0.02 | 90 | 1007.8 |
| 20260903151736 | 0 | 0.0 | 0.0 | 0.00 | 0.00 | 0.00 | |||
| 20260903151504 | 52 | 114 | 6.0 | 7.0 | 0.00 | 0.00 | 0.02 | 90 | 1007.8 |
| 20260903151237 | 0 | 0.0 | 0.0 | 0.00 | 0.00 | 0.00 | |||
| 20260903150958 | 52 | 116 | 6.0 | 7.0 | 0.00 | 0.00 | 0.02 | 91 | 1007.8 |
| 20260903150736 | 0 | 0.0 | 0.0 | 0.00 | 0.00 | 0.00 | |||
| 20260903150458 | 52 | 117 | 6.0 | 8.0 | 0.00 | 0.00 | 0.02 | 91 | 1007.8 |
| 20260903150236 | 0 | 0.0 | 0.0 | 0.00 | 0.00 | 0.00 | |||
| 20260903145959 | 52 | 110 | 7.0 | 10.0 | 0.00 | 0.00 | 0.02 | 91 | 1007.8 |
| 20260903145737 | 0 | 0.0 | 0.0 | 0.00 | 0.00 | 0.00 | |||
| 20260903145458 | 52 | 108 | 7.0 | 11.0 | 0.01 | 0.00 | 0.02 | 92 | 1007.7 |
| 20260903145237 | 0 | 0.0 | 0.0 | 0.00 | 0.00 | 0.00 | |||
| 20260903144957 | 52 | 121 | 6.0 | 8.0 | 0.01 | 0.00 | 0.02 | 93 | 1007.6 |
| 20260903144736 | 0 | 0.0 | 0.0 | 0.00 | 0.00 | 0.00 | |||
| 20260903144459 | 52 | 127 | 7.0 | 9.0 | 0.01 | 0.00 | 0.02 | 93 | 1007.6 |
| 20260903144232 | 0 | 0.0 | 0.0 | 0.00 | 0.00 | 0.00 | |||
| 20260903143957 | 52 | 122 | 6.0 | 7.0 | 0.01 | 0.00 | 0.02 | 94 | 1007.5 |
| 20260903143731 | 0 | 0.0 | 0.0 | 0.00 | 0.00 | 0.00 | |||
| 20260903143459 | 51 | 113 | 7.0 | 9.0 | 0.01 | 0.00 | 0.02 | 95 | 1007.4 |
| 20260903143232 | 0 | 0.0 | 0.0 | 0.00 | 0.00 | 0.00 | |||
| 20260903142959 | 51 | 123 | 6.0 | 8.0 | 0.01 | 0.00 | 0.02 | 95 | 1007.4 |
| 20260903142732 | 0 | 0.0 | 0.0 | 0.00 | 0.00 | 0.00 | |||
| 20260903142458 | 51 | 121 | 7.0 | 9.0 | 0.02 | 0.00 | 0.02 | 95 | 1007.4 |
| 20260903142231 | 0 | 0.0 | 0.0 | 0.00 | 0.00 | 0.00 | |||
| 20260903141957 | 51 | 116 | 7.0 | 9.0 | 0.02 | 0.00 | 0.02 | 95 | 1007.3 |
| 20260903141732 | 0 | 0.0 | 0.0 | 0.00 | 0.00 | 0.00 | |||
| 20260903141458 | 51 | 125 | 6.0 | 8.0 | 0.02 | 0.00 | 0.02 | 95 | 1007.3 |
| 20260903141233 | 0 | 0.0 | 0.0 | 0.00 | 0.00 | 0.00 | |||
| 20260903140957 | 51 | 129 | 6.0 | 8.0 | 0.02 | 0.00 | 0.02 | 95 | 1007.2 |
| 20260903140729 | 0 | 0.0 | 0.0 | 0.00 | 0.00 | 0.00 | |||
| 20260903140458 | 51 | 122 | 6.0 | 8.0 | 0.02 | 0.00 | 0.02 | 95 | 1007.2 |
| 20260903140229 | 0 | 0.0 | 0.0 | 0.00 | 0.00 | 0.00 | |||
| 20260903140001 | 51 | 119 | 6.0 | 9.0 | 0.02 | 0.00 | 0.02 | 95 | 1007.2 |
| 20260903135729 | 0 | 0.0 | 0.0 | 0.00 | 0.00 | 0.00 | |||
| 20260903135500 | 51 | 122 | 6.0 | 9.0 | 0.01 | 0.00 | 0.02 | 95 | 1007.2 |
| 20260903135230 | 0 | 0.0 | 0.0 | 0.00 | 0.00 | 0.00 | |||
| 20260903134958 | 51 | 128 | 6.0 | 8.0 | 0.01 | 0.00 | 0.02 | 94 | 1007.3 |
| 20260903134458 | 51 | 122 | 7.0 | 9.0 | 0.01 | 0.00 | 0.01 | 94 | 1007.2 |
| 20260903134230 | 0 | 0.0 | 0.0 | 0.00 | 0.00 | 0.00 | |||
| 20260903133957 | 51 | 128 | 6.0 | 9.0 | 0.01 | 0.00 | 0.01 | 93 | 1007.1 |
| 20260903133729 | 0 | 0.0 | 0.0 | 0.00 | 0.00 | 0.00 | |||
| 20260903133458 | 51 | 124 | 7.0 | 8.0 | 0.00 | 0.00 | 0.01 | 93 | 1007.1 |
| 20260903133230 | 0 | 0.0 | 0.0 | 0.00 | 0.00 | 0.00 | |||
| 20260903132958 | 52 | 125 | 6.0 | 8.0 | 0.00 | 0.00 | 0.01 | 92 | 1007.0 |
| 20260903132458 | 52 | 126 | 6.0 | 8.0 | 0.00 | 0.00 | 0.00 | 90 | 1006.9 |
| 20260903132230 | 0 | 0.0 | 0.0 | 0.00 | 0.00 | 0.00 | |||
| 20260903131958 | 52 | 127 | 6.0 | 9.0 | 0.00 | 0.00 | 0.00 | 90 | 1006.9 |
| 20260903131730 | 0 | 0.0 | 0.0 | 0.00 | 0.00 | 0.00 | |||
| 20260903131457 | 53 | 122 | 6.0 | 8.0 | 0.00 | 0.00 | 0.00 | 88 | 1006.9 |
| 20260903131230 | 0 | 0.0 | 0.0 | 0.00 | 0.00 | 0.00 | |||
| 20260903130958 | 53 | 128 | 8.0 | 9.0 | 0.00 | 0.00 | 0.00 | 87 | 1006.8 |
| 20260903130728 | 0 | 0.0 | 0.0 | 0.00 | 0.00 | 0.00 | |||
| 20260903130458 | 53 | 129 | 7.0 | 10.0 | 0.00 | 0.00 | 0.00 | 85 | 1006.8 |
| 20260903130227 | 0 | 0.0 | 0.0 | 0.00 | 0.00 | 0.00 | |||
| 20260903125958 | 53 | 128 | 6.0 | 8.0 | 0.00 | 0.00 | 0.00 | 85 | 1006.6 |
| 20260903125724 | 0 | 0.0 | 0.0 | 0.00 | 0.00 | 0.00 | |||
| 20260903125457 | 53 | 126 | 6.0 | 9.0 | 0.00 | 0.00 | 0.00 | 84 | 1006.4 |
| 20260903125224 | 0 | 0.0 | 0.0 | 0.00 | 0.00 | 0.00 | |||
| 20260903124958 | 53 | 125 | 6.0 | 9.0 | 0.00 | 0.00 | 0.00 | 84 | 1006.5 |
| 20260903124725 | 0 | 0.0 | 0.0 | 0.00 | 0.00 | 0.00 | |||
| 20260903124457 | 53 | 124 | 6.0 | 8.0 | 0.00 | 0.00 | 0.00 | 83 | 1006.4 |
| 20260903124227 | 0 | 0.0 | 0.0 | 0.00 | 0.00 | 0.00 | |||
| 20260903123958 | 53 | 127 | 6.0 | 12.0 | 0.00 | 0.00 | 0.00 | 83 | 1006.4 |
| 20260903123725 | 0 | 0.0 | 0.0 | 0.00 | 0.00 | 0.00 | |||
| 20260903123457 | 54 | 128 | 6.0 | 9.0 | 0.00 | 0.00 | 0.00 | 83 | 1006.4 |
| 20260903123225 | 0 | 0.0 | 0.0 | 0.00 | 0.00 | 0.00 | |||
| 20260903122957 | 54 | 117 | 7.0 | 9.0 | 0.00 | 0.00 | 0.00 | 83 | 1006.4 |
| 20260903122725 | 0 | 0.0 | 0.0 | 0.00 | 0.00 | 0.00 |